DAL1894 KATL-TNCM

Flight info

Callsign DAL1894
Flight time N/A
Altitude 37000
Route GAIRY2 IRQ DCT DEDDY AR12 JAINS/M078F370 L451 LETON/N0452F370 L451 IORIO Y356 CERDA Y439 FIPEK Y355 SLUGO DCT
Aircraft A321/M-V/N

Departure

Time N/A
Airport Hartsfield Jackson Atlanta International Airport (KATL)

Arrival

Time 2026-05-05 20:19
Airport Princess Juliana International Airport (TNCM)
Time Latitude Longitude Altitude Speed Heading
2026-05-05 18:31 25.88196 -72.64705 37092 ft 471 kts 153°
2026-05-05 18:31 25.85472 -72.62668 37090 ft 471 kts 153°
2026-05-05 18:32 25.80047 -72.58611 37044 ft 471 kts 153°
2026-05-05 18:32 25.74611 -72.54569 37090 ft 469 kts 152°
2026-05-05 18:33 25.69199 -72.50544 37101 ft 468 kts 152°
2026-05-05 18:33 25.63818 -72.46545 37101 ft 467 kts 152°
2026-05-05 18:34 25.58425 -72.42531 37097 ft 467 kts 152°
2026-05-05 18:34 25.53030 -72.38529 37093 ft 467 kts 152°
2026-05-05 18:35 25.47630 -72.34531 37095 ft 467 kts 152°
2026-05-05 18:35 25.42246 -72.30541 37078 ft 466 kts 152°
2026-05-05 18:36 25.36854 -72.26547 37081 ft 466 kts 152°
2026-05-05 18:36 25.31469 -72.22569 37084 ft 466 kts 152°
2026-05-05 18:37 25.26074 -72.18590 37089 ft 465 kts 152°
2026-05-05 18:37 25.20699 -72.14624 37090 ft 465 kts 152°
2026-05-05 18:38 25.15310 -72.10659 37090 ft 465 kts 152°
2026-05-05 18:38 25.09964 -72.06729 37068 ft 465 kts 152°
2026-05-05 18:39 25.04574 -72.02778 37076 ft 465 kts 152°
2026-05-05 18:39 24.98875 -71.99668 37077 ft 451 kts 169°
2026-05-05 18:40 24.92820 -71.98427 37077 ft 440 kts 180°
2026-05-05 18:40 24.86733 -71.97619 37077 ft 441 kts 180°
2026-05-05 18:41 24.80636 -71.96800 37049 ft 441 kts 179°
2026-05-05 18:41 24.74543 -71.95981 37065 ft 441 kts 180°
2026-05-05 18:42 24.68441 -71.95161 37073 ft 442 kts 179°
2026-05-05 18:42 24.62326 -71.94338 37074 ft 442 kts 179°
2026-05-05 18:43 24.56227 -71.93517 37076 ft 442 kts 179°
2026-05-05 18:43 24.50113 -71.92700 37047 ft 442 kts 179°
2026-05-05 18:44 24.44052 -71.91891 37063 ft 441 kts 179°
2026-05-05 18:44 24.37917 -71.91068 37084 ft 441 kts 179°
2026-05-05 18:45 24.31864 -71.90262 37090 ft 440 kts 179°
2026-05-05 18:45 24.25758 -71.89440 37096 ft 439 kts 179°
2026-05-05 18:46 24.19701 -71.88637 37075 ft 437 kts 179°
2026-05-05 18:46 24.13742 -71.87467 37083 ft 445 kts 166°
2026-05-05 18:47 24.10895 -71.86072 37085 ft 452 kts 154°
2026-05-05 18:47 24.08302 -71.84092 37083 ft 459 kts 143°
2026-05-05 18:47 24.06074 -71.81570 37081 ft 465 kts 131°
2026-05-05 18:47 24.04157 -71.78718 37076 ft 466 kts 130°
2026-05-05 18:48 24.00318 -71.73003 37077 ft 466 kts 130°
2026-05-05 18:48 23.96446 -71.67299 37085 ft 467 kts 130°
2026-05-05 18:49 23.92580 -71.61609 37078 ft 467 kts 130°
2026-05-05 18:49 23.88708 -71.55899 37077 ft 467 kts 130°
2026-05-05 18:50 23.84828 -71.50183 37055 ft 467 kts 130°
2026-05-05 18:50 23.80959 -71.44483 37063 ft 468 kts 130°
2026-05-05 18:51 23.77078 -71.38778 37073 ft 468 kts 130°
2026-05-05 18:51 23.73197 -71.33080 37076 ft 468 kts 130°
2026-05-05 18:52 23.69316 -71.27392 37078 ft 468 kts 130°
2026-05-05 18:52 23.65435 -71.21691 37080 ft 468 kts 130°
2026-05-05 18:53 23.61574 -71.16036 37083 ft 468 kts 130°
2026-05-05 18:53 23.57683 -71.10338 37085 ft 468 kts 130°
2026-05-05 18:54 23.53788 -71.04656 37087 ft 467 kts 130°
2026-05-05 18:54 23.49899 -70.98984 37085 ft 467 kts 130°
2026-05-05 18:55 23.46000 -70.93314 37084 ft 467 kts 130°
2026-05-05 18:55 23.42099 -70.87641 37073 ft 467 kts 130°
2026-05-05 18:56 23.38209 -70.81974 37069 ft 468 kts 130°
2026-05-05 18:56 23.34304 -70.76299 37071 ft 468 kts 130°
2026-05-05 18:57 23.30392 -70.70626 37076 ft 468 kts 130°
2026-05-05 18:57 23.26479 -70.64953 37078 ft 469 kts 130°
2026-05-05 18:58 23.22565 -70.59297 37078 ft 469 kts 130°
2026-05-05 18:58 23.18649 -70.53624 37076 ft 469 kts 130°
2026-05-05 18:59 23.14729 -70.47961 37071 ft 469 kts 130°
2026-05-05 18:59 23.10803 -70.42300 37061 ft 469 kts 130°
2026-05-05 19:00 23.06876 -70.36640 37069 ft 469 kts 130°
2026-05-05 19:00 23.02953 -70.30987 37080 ft 469 kts 130°
2026-05-05 19:01 22.99050 -70.25374 37086 ft 469 kts 130°
2026-05-05 19:01 22.95091 -70.19690 37079 ft 469 kts 130°
2026-05-05 19:02 22.91182 -70.14084 37082 ft 468 kts 130°
2026-05-05 19:02 22.87251 -70.08455 37082 ft 468 kts 130°
2026-05-05 19:03 22.83321 -70.02822 37085 ft 468 kts 130°
2026-05-05 19:03 22.79385 -69.97194 37089 ft 468 kts 130°
2026-05-05 19:04 22.75452 -69.91584 37068 ft 467 kts 131°
2026-05-05 19:04 22.70984 -69.86564 37090 ft 462 kts 140°
2026-05-05 19:05 22.66342 -69.81755 37094 ft 461 kts 140°
2026-05-05 19:05 22.61708 -69.76953 37094 ft 460 kts 140°
2026-05-05 19:06 22.57086 -69.72171 37095 ft 460 kts 140°
2026-05-05 19:06 22.52472 -69.67391 37094 ft 459 kts 140°
2026-05-05 19:07 22.48628 -69.63415 37091 ft 459 kts 140°
2026-05-05 19:07 22.43228 -69.57838 37089 ft 459 kts 140°
2026-05-05 19:08 22.39386 -69.53884 37067 ft 458 kts 140°
2026-05-05 19:08 22.34781 -69.49133 37090 ft 457 kts 139°
2026-05-05 19:09 22.30189 -69.44404 37102 ft 455 kts 140°
2026-05-05 19:09 22.25600 -69.39694 37101 ft 454 kts 140°
2026-05-05 19:10 22.21020 -69.34990 37096 ft 454 kts 140°
2026-05-05 19:10 22.16445 -69.30294 37096 ft 454 kts 140°
2026-05-05 19:11 22.11906 -69.25636 37097 ft 453 kts 140°
2026-05-05 19:11 22.07336 -69.20958 37093 ft 453 kts 140°
2026-05-05 19:12 22.02767 -69.16272 37083 ft 453 kts 140°
2026-05-05 19:12 21.98204 -69.11595 37088 ft 452 kts 140°
2026-05-05 19:13 21.93644 -69.06942 37091 ft 452 kts 140°
2026-05-05 19:13 21.89081 -69.02288 37089 ft 451 kts 140°
2026-05-05 19:14 21.84524 -68.97644 37085 ft 451 kts 140°
2026-05-05 19:14 21.79962 -68.92994 37084 ft 451 kts 140°
2026-05-05 19:15 21.75407 -68.88359 37074 ft 451 kts 140°
2026-05-05 19:15 21.70885 -68.83751 37078 ft 451 kts 140°
2026-05-05 19:16 21.66333 -68.79117 37069 ft 451 kts 141°
2026-05-05 19:16 21.61766 -68.74493 37074 ft 451 kts 141°
2026-05-05 19:17 21.57194 -68.69869 37081 ft 451 kts 141°
2026-05-05 19:17 21.52626 -68.65229 37086 ft 452 kts 141°
2026-05-05 19:18 21.48056 -68.60594 37090 ft 452 kts 141°
2026-05-05 19:18 21.43475 -68.55966 37092 ft 452 kts 141°
2026-05-05 19:19 21.38894 -68.51346 37086 ft 452 kts 141°
2026-05-05 19:19 21.34320 -68.46724 37089 ft 451 kts 141°
2026-05-05 19:20 21.29744 -68.42104 37081 ft 451 kts 141°
2026-05-05 19:20 21.25169 -68.37485 37084 ft 451 kts 141°
2026-05-05 19:21 21.20595 -68.32878 37088 ft 451 kts 141°
2026-05-05 19:21 21.16018 -68.28275 37092 ft 451 kts 142°
2026-05-05 19:22 21.11433 -68.23676 37093 ft 451 kts 141°
2026-05-05 19:22 21.06857 -68.19079 37092 ft 451 kts 142°
2026-05-05 19:23 21.02279 -68.14484 37086 ft 450 kts 142°
2026-05-05 19:23 20.97712 -68.09900 37071 ft 450 kts 142°
2026-05-05 19:24 20.93144 -68.05325 37081 ft 450 kts 142°
2026-05-05 19:24 20.88565 -68.00752 37084 ft 450 kts 142°
2026-05-05 19:25 20.84610 -67.95502 37083 ft 460 kts 124°
2026-05-05 19:25 20.81397 -67.89633 37083 ft 461 kts 124°
2026-05-05 19:26 20.78133 -67.83742 37082 ft 461 kts 125°
2026-05-05 19:26 20.74863 -67.77849 37084 ft 461 kts 125°
2026-05-05 19:27 20.71597 -67.71951 37086 ft 460 kts 125°
2026-05-05 19:27 20.68336 -67.66068 37087 ft 460 kts 125°
2026-05-05 19:28 20.65064 -67.60193 37086 ft 460 kts 125°
2026-05-05 19:28 20.61791 -67.54307 37083 ft 460 kts 125°
2026-05-05 19:29 20.58546 -67.48464 37053 ft 460 kts 125°
2026-05-05 19:29 20.55281 -67.42604 37061 ft 460 kts 125°
2026-05-05 19:30 20.52011 -67.36741 37072 ft 460 kts 125°
2026-05-05 19:30 20.48736 -67.30881 37077 ft 460 kts 125°
2026-05-05 19:31 20.45460 -67.25008 37085 ft 460 kts 125°
2026-05-05 19:31 20.42183 -67.19148 37085 ft 460 kts 125°
2026-05-05 19:32 20.38912 -67.13300 37084 ft 460 kts 126°
2026-05-05 19:32 20.35627 -67.07447 37085 ft 459 kts 126°
2026-05-05 19:33 20.32345 -67.01604 37087 ft 460 kts 126°
2026-05-05 19:33 20.29079 -66.95795 37089 ft 460 kts 126°
2026-05-05 19:34 20.25793 -66.89954 37086 ft 459 kts 126°
2026-05-05 19:35 20.20869 -66.81198 37084 ft 459 kts 126°
2026-05-05 19:35 20.17585 -66.75363 37084 ft 459 kts 125°
2026-05-05 19:36 20.14304 -66.69543 37085 ft 459 kts 125°
2026-05-05 19:36 20.11014 -66.63726 37082 ft 459 kts 125°
2026-05-05 19:37 20.07721 -66.57903 37086 ft 459 kts 125°
2026-05-05 19:37 20.04435 -66.52086 37080 ft 459 kts 125°
2026-05-05 19:38 20.01142 -66.46270 37084 ft 459 kts 125°
2026-05-05 19:38 19.97840 -66.40459 37083 ft 459 kts 125°
2026-05-05 19:39 19.94545 -66.34651 37098 ft 459 kts 125°
2026-05-05 19:39 19.91248 -66.28845 37098 ft 459 kts 125°
2026-05-05 19:40 19.87967 -66.23083 37078 ft 459 kts 125°
2026-05-05 19:40 19.84672 -66.17289 37089 ft 458 kts 125°
2026-05-05 19:41 19.81373 -66.11496 37091 ft 458 kts 125°
2026-05-05 19:41 19.78074 -66.05713 37094 ft 458 kts 125°
2026-05-05 19:42 19.74779 -65.99923 37096 ft 458 kts 125°
2026-05-05 19:42 19.71479 -65.94154 37091 ft 457 kts 125°
2026-05-05 19:43 19.68172 -65.88384 37078 ft 457 kts 125°
2026-05-05 19:43 19.64870 -65.82616 37089 ft 457 kts 125°
2026-05-05 19:44 19.61576 -65.76864 37081 ft 457 kts 125°
2026-05-05 19:44 19.58287 -65.71123 37094 ft 457 kts 125°
2026-05-05 19:45 19.54965 -65.65333 37085 ft 457 kts 125°
2026-05-05 19:45 19.51669 -65.59611 37085 ft 457 kts 125°
2026-05-05 19:46 19.48360 -65.53854 37081 ft 457 kts 125°
2026-05-05 19:46 19.45056 -65.48110 37087 ft 457 kts 125°
2026-05-05 19:47 19.41746 -65.42371 37083 ft 456 kts 125°
2026-05-05 19:47 19.38448 -65.36673 37083 ft 456 kts 125°
2026-05-05 19:48 19.35114 -65.30923 37078 ft 456 kts 125°
2026-05-05 19:48 19.31802 -65.25199 37074 ft 456 kts 124°
2026-05-05 19:48 19.30149 -65.22331 36895 ft 455 kts 124°
2026-05-05 19:49 19.28502 -65.19474 36312 ft 455 kts 124°
2026-05-05 19:49 19.27410 -65.17584 35932 ft 455 kts 124°
2026-05-05 19:49 19.25197 -65.13760 35169 ft 455 kts 124°
2026-05-05 19:49 19.23540 -65.10897 34588 ft 455 kts 124°
2026-05-05 19:50 19.21899 -65.08069 34065 ft 456 kts 124°
2026-05-05 19:50 19.20235 -65.05210 33402 ft 456 kts 124°
2026-05-05 19:50 19.18577 -65.02357 32778 ft 456 kts 124°
2026-05-05 19:50 19.16912 -64.99495 32158 ft 456 kts 124°
2026-05-05 19:51 19.15252 -64.96645 31546 ft 455 kts 124°
2026-05-05 19:51 19.13596 -64.93791 31029 ft 452 kts 123°
2026-05-05 19:51 19.11960 -64.90970 30604 ft 447 kts 123°
2026-05-05 19:51 19.10342 -64.88181 30160 ft 443 kts 123°
2026-05-05 19:52 19.08741 -64.85431 29640 ft 438 kts 124°
2026-05-05 19:52 19.07143 -64.82695 29095 ft 435 kts 123°
2026-05-05 19:52 19.05564 -64.79987 28571 ft 431 kts 123°
2026-05-05 19:52 19.03999 -64.77298 28051 ft 428 kts 123°
2026-05-05 19:53 19.02448 -64.74630 27546 ft 424 kts 123°
2026-05-05 19:53 19.00906 -64.71979 27017 ft 421 kts 124°
2026-05-05 19:53 18.99374 -64.69351 26505 ft 418 kts 123°
2026-05-05 19:53 18.98368 -64.67627 26174 ft 416 kts 124°
2026-05-05 19:54 18.96847 -64.65026 25658 ft 414 kts 124°
2026-05-05 19:54 18.94853 -64.61617 25024 ft 410 kts 123°
2026-05-05 19:54 18.93358 -64.59067 24547 ft 407 kts 123°
2026-05-05 19:54 18.91872 -64.56525 24080 ft 405 kts 123°
2026-05-05 19:55 18.90399 -64.54006 23616 ft 402 kts 123°
2026-05-05 19:55 18.89424 -64.52341 23262 ft 400 kts 123°
2026-05-05 19:55 18.87963 -64.49844 22680 ft 399 kts 123°
2026-05-05 19:55 18.86510 -64.47364 22182 ft 396 kts 123°
2026-05-05 19:56 18.85066 -64.44898 21636 ft 395 kts 123°
2026-05-05 19:56 18.83626 -64.42440 21134 ft 393 kts 122°
2026-05-05 19:56 18.82193 -64.39997 20677 ft 390 kts 122°
2026-05-05 19:56 18.80768 -64.37577 20202 ft 388 kts 122°
2026-05-05 19:57 18.79350 -64.35170 19768 ft 385 kts 122°
2026-05-05 19:57 18.77940 -64.32772 19333 ft 382 kts 122°
2026-05-05 19:57 18.76544 -64.30393 18889 ft 381 kts 122°
2026-05-05 19:57 18.75155 -64.28022 18423 ft 379 kts 122°
2026-05-05 19:58 18.73769 -64.25662 17948 ft 377 kts 122°
2026-05-05 19:58 18.72392 -64.23317 17508 ft 374 kts 122°
2026-05-05 19:58 18.71028 -64.21001 17087 ft 370 kts 122°
2026-05-05 19:58 18.69676 -64.18704 16652 ft 367 kts 122°
2026-05-05 19:59 18.68332 -64.16426 16252 ft 364 kts 122°
2026-05-05 19:59 18.67007 -64.14175 15893 ft 359 kts 122°
2026-05-05 19:59 18.65692 -64.11937 15462 ft 357 kts 122°
2026-05-05 19:59 18.64388 -64.09723 15070 ft 354 kts 122°
2026-05-05 20:00 18.63097 -64.07529 14778 ft 348 kts 122°
2026-05-05 20:00 18.61842 -64.05400 14649 ft 336 kts 122°
2026-05-05 20:00 18.60626 -64.03341 14539 ft 325 kts 122°
2026-05-05 20:00 18.59451 -64.01354 14424 ft 314 kts 122°
2026-05-05 20:01 18.58314 -63.99425 14305 ft 304 kts 122°
2026-05-05 20:01 18.57215 -63.97558 14153 ft 296 kts 122°
2026-05-05 20:01 18.56143 -63.95739 14011 ft 287 kts 122°
2026-05-05 20:01 18.55107 -63.93987 13894 ft 277 kts 122°
2026-05-05 20:02 18.54111 -63.92305 13754 ft 269 kts 122°
2026-05-05 20:02 18.53126 -63.90642 13347 ft 270 kts 122°
2026-05-05 20:02 18.52104 -63.88915 12544 ft 287 kts 122°
2026-05-05 20:02 18.51020 -63.87084 11835 ft 300 kts 122°
2026-05-05 20:03 18.49908 -63.85208 11393 ft 301 kts 122°
2026-05-05 20:03 18.48801 -63.83340 11024 ft 300 kts 122°
2026-05-05 20:03 18.47699 -63.81477 10662 ft 298 kts 122°
2026-05-05 20:03 18.46603 -63.79624 10299 ft 297 kts 122°
2026-05-05 20:04 18.45518 -63.77789 9950 ft 295 kts 122°
2026-05-05 20:04 18.44437 -63.75960 9565 ft 292 kts 122°
2026-05-05 20:04 18.43367 -63.74149 9205 ft 289 kts 122°
2026-05-05 20:04 18.42306 -63.72357 8865 ft 286 kts 122°
2026-05-05 20:05 18.41261 -63.70595 8532 ft 282 kts 122°
2026-05-05 20:05 18.40224 -63.68847 8158 ft 281 kts 122°
2026-05-05 20:05 18.39179 -63.67131 7850 ft 276 kts 127°
2026-05-05 20:05 18.37923 -63.65658 7724 ft 265 kts 137°
2026-05-05 20:06 18.36622 -63.64376 7597 ft 254 kts 136°
2026-05-05 20:06 18.35347 -63.63110 7351 ft 249 kts 136°
2026-05-05 20:06 18.34082 -63.61851 6958 ft 250 kts 136°
2026-05-05 20:06 18.32823 -63.60596 6649 ft 248 kts 136°
2026-05-05 20:07 18.31570 -63.59349 6229 ft 251 kts 136°
2026-05-05 20:07 18.30293 -63.58077 5782 ft 253 kts 136°
2026-05-05 20:07 18.29019 -63.56809 5463 ft 250 kts 136°
2026-05-05 20:07 18.27762 -63.55561 5137 ft 248 kts 136°
2026-05-05 20:08 18.26504 -63.54315 4765 ft 248 kts 136°
2026-05-05 20:08 18.25272 -63.53094 4645 ft 238 kts 136°
2026-05-05 20:08 18.24093 -63.51926 4501 ft 228 kts 136°
2026-05-05 20:08 18.22969 -63.50815 4404 ft 214 kts 136°
2026-05-05 20:09 18.21914 -63.49770 4275 ft 202 kts 136°
2026-05-05 20:09 18.20921 -63.48788 4142 ft 191 kts 136°
2026-05-05 20:09 18.19980 -63.47857 4021 ft 181 kts 136°
2026-05-05 20:09 18.19099 -63.46983 3882 ft 172 kts 136°
2026-05-05 20:10 18.18244 -63.46134 3717 ft 168 kts 136°
2026-05-05 20:10 18.17399 -63.45294 3509 ft 166 kts 136°
2026-05-05 20:10 18.16564 -63.44464 3304 ft 165 kts 136°
2026-05-05 20:10 18.15735 -63.43640 3098 ft 164 kts 136°
2026-05-05 20:11 18.14910 -63.42821 2869 ft 163 kts 135°
2026-05-05 20:11 18.14091 -63.42013 2711 ft 159 kts 135°
2026-05-05 20:11 18.13293 -63.41226 2653 ft 158 kts 135°
2026-05-05 20:11 18.12489 -63.40430 2611 ft 158 kts 135°
2026-05-05 20:12 18.11686 -63.39635 2611 ft 159 kts 135°
2026-05-05 20:12 18.10881 -63.38838 2610 ft 158 kts 135°
2026-05-05 20:12 18.10088 -63.38054 2607 ft 156 kts 135°
2026-05-05 20:12 18.09299 -63.37274 2607 ft 156 kts 134°
2026-05-05 20:13 18.08502 -63.36487 2613 ft 161 kts 135°
2026-05-05 20:13 18.07676 -63.35670 2616 ft 165 kts 135°
2026-05-05 20:13 18.06832 -63.34838 2617 ft 167 kts 135°
2026-05-05 20:13 18.05985 -63.34003 2612 ft 167 kts 135°
2026-05-05 20:14 18.05141 -63.33170 2609 ft 167 kts 135°
2026-05-05 20:14 18.04295 -63.32335 2610 ft 167 kts 135°
2026-05-05 20:14 18.03448 -63.31498 2608 ft 167 kts 135°
2026-05-05 20:14 18.02603 -63.30658 2611 ft 166 kts 133°
2026-05-05 20:15 18.01965 -63.29715 2528 ft 155 kts 114°
2026-05-05 20:15 18.01670 -63.28651 2355 ft 151 kts 98°
2026-05-05 20:15 18.01701 -63.27544 2109 ft 154 kts 83°
2026-05-05 20:15 18.01871 -63.26429 1853 ft 155 kts 83°
2026-05-05 20:16 18.02033 -63.25313 1733 ft 156 kts 84°
2026-05-05 20:16 18.02195 -63.24191 1709 ft 155 kts 84°
2026-05-05 20:16 18.02358 -63.23052 1719 ft 160 kts 83°
2026-05-05 20:16 18.02524 -63.21891 1713 ft 162 kts 85°
2026-05-05 20:17 18.02694 -63.20717 1736 ft 161 kts 84°
2026-05-05 20:17 18.02856 -63.19599 1439 ft 151 kts 83°
2026-05-05 20:17 18.03007 -63.18545 1071 ft 141 kts 83°
2026-05-05 20:17 18.03151 -63.17537 813 ft 137 kts 84°
2026-05-05 20:18 18.03294 -63.16529 810 ft 140 kts 84°
2026-05-05 20:18 18.03438 -63.15510 810 ft 141 kts 84°
2026-05-05 20:18 18.03592 -63.14487 735 ft 147 kts 83°
2026-05-05 20:18 18.03740 -63.13474 463 ft 135 kts 84°
2026-05-05 20:19 18.03871 -63.12533 217 ft 126 kts 84°
2026-05-05 20:19 18.03991 -63.11652 35 ft 115 kts 84°
2026-05-05 20:19 18.04079 -63.10973 28 ft 68 kts 82°
2026-05-05 20:19 18.04124 -63.10651 28 ft 27 kts 81°
2026-05-05 20:20 18.04151 -63.10457 28 ft 26 kts 83°
2026-05-05 20:20 18.04173 -63.10273 27 ft 25 kts 81°
2026-05-05 20:20 18.04200 -63.10101 27 ft 23 kts 79°
2026-05-05 20:20 18.04251 -63.09947 27 ft 22 kts 56°
2026-05-05 20:21 18.04246 -63.09858 27 ft 10 kts 177°
2026-05-05 20:21 18.04226 -63.09906 27 ft 12 kts 269°
2026-05-05 20:21 18.04218 -63.10001 27 ft 13 kts 262°
2026-05-05 20:21 18.04205 -63.10104 27 ft 15 kts 262°
2026-05-05 20:22 18.04187 -63.10237 27 ft 21 kts 261°
2026-05-05 20:22 18.04162 -63.10409 28 ft 24 kts 261°
2026-05-05 20:22 18.04137 -63.10581 28 ft 24 kts 261°
2026-05-05 20:22 18.04111 -63.10750 27 ft 23 kts 261°
2026-05-05 20:23 18.04088 -63.10914 27 ft 22 kts 262°
2026-05-05 20:23 18.04068 -63.11063 28 ft 20 kts 263°
2026-05-05 20:23 18.04101 -63.11153 28 ft 13 kts 333°
2026-05-05 20:23 18.04154 -63.11175 28 ft 5 kts 340°
2026-05-05 20:24 18.04185 -63.11188 29 ft 5 kts 338°
2026-05-05 20:24 18.04221 -63.11206 29 ft 10 kts 333°
2026-05-05 20:24 18.04256 -63.11271 29 ft 11 kts 263°
2026-05-05 20:24 18.04241 -63.11344 29 ft 10 kts 261°
2026-05-05 20:25 18.04239 -63.11404 29 ft 7 kts 297°
2026-05-05 20:25 18.04277 -63.11422 29 ft 6 kts 341°
2026-05-05 20:25 18.04311 -63.11430 29 ft 4 kts 349°
2026-05-05 20:25 18.04313 -63.11431 29 ft 0 kts 349°